Location: Bremen
(53.0833°N, 8.8000°E)
Time: 13:46:59
(UTC+02:00)

ISS - Pass Details

Date: 03 May 2025
Orbit: 416 x 419 km, 51.6° (Epoch: 14 May)

Event Time Altitude Azimuth Distance (km) Brightness Sun altitude
Exits shadow 03:47:49 23° 257° (WSW) 937 -2.4 -14.4°
Maximum altitude 03:49:44 69° 178° (S) 450 -3.8 -14.2°
Drops below altitude 10° 03:53:05 10° 94° (E) 1,497 -0.5 -13.9°
Sets 03:55:11 0° 92° (E) 2,361 0.6 -13.7°
